Tracking 26198 objects as of 1-Oct-2022
HD Live streaming from Space Station
objects crossing your sky now

STARLINK-3370

Track STARLINK-3370 now!
10-day predictions
STARLINK-3370 is classified as:


NORAD ID: 51127
Int'l Code: 2022-005Z
Perigee: 545.7 km
Apogee: 548.1 km
Inclination: 53.2 °
Period: 95.4 minutes
Semi major axis: 6917 km
RCS: Unknown
Launch date: January 19, 2022
Source: United States (US)
Launch site: AIR FORCE EASTERN TEST RANGE (AFETR)
aabbcc
Your satellite tracking list
Your tracking list is empty




NASA's NSSDC Master Catalog

Two Line Element Set (TLE):
1 51127U 22005Z   22273.44412594 -.00001869  00000-0 -99352-4 0  9992
2 51127  53.2178 178.6376 0001729  47.7345 312.3794 15.08839492 39089
Source of the keplerian elements: AFSPC